Location: Newark
(54.3386°S, 169.8415°W)
Time: 07:22:21
(UTC+00:00)

Tiros 1 despin weight - All Passes

Search period start: 19 October 2019 00:00
Search period end: 29 October 2019 00:00
Orbit: 593 x 643 km, 48.2° (Epoch: 19 October)

Date Brightness Start Highest point End Pass type
(mag) Time Alt. Az. Time Alt. Az. Time Alt. Az.
19 Oct - 00:56:41 10° NNW 00:59:51 19° NNE 01:03:01 10° ENE daylight
19 Oct - 02:36:33 10° WNW 02:40:37 35° N 02:44:43 10° ENE daylight
19 Oct - 04:17:34 10° WNW 04:21:37 34° N 04:25:41 10° NE daylight
19 Oct - 05:59:20 10° WNW 06:02:22 18° NNW 06:05:25 10° NNE daylight
20 Oct - 01:12:23 10° NW 01:16:06 26° NNE 01:19:49 10° ENE daylight
20 Oct - 02:52:52 10° WNW 02:57:01 38° N 03:01:09 10° ENE daylight
20 Oct - 04:34:07 10° WNW 04:37:58 29° NNW 04:41:49 10° NE daylight
20 Oct - 06:16:51 10° WNW 06:18:31 12° NW 06:20:10 10° NNW daylight
20 Oct - 23:49:05 10° N 23:51:45 16° NNE 23:54:23 10° ENE daylight
21 Oct - 01:28:25 10° NW 01:32:25 32° NNE 01:36:25 10° ENE daylight
21 Oct - 03:09:17 10° WNW 03:13:24 37° N 03:17:31 10° ENE daylight
21 Oct - 04:50:48 10° WNW 04:54:14 22° NNW 04:57:40 10° NNE daylight
22 Oct - 00:04:28 10° NNW 00:07:56 22° NNE 00:11:24 10° ENE daylight
22 Oct - 01:44:39 10° WNW 01:48:47 37° N 01:52:54 10° ENE daylight
22 Oct - 03:25:47 10° WNW 03:29:45 32° NNW 03:33:45 10° NE daylight
22 Oct - 05:07:50 10° WNW 05:10:26 15° NNW 05:13:02 10° N daylight
22 Oct - 22:41:54 10° NNE 22:43:39 12° NE 22:45:25 10° ENE daylight
23 Oct - 00:20:21 10° NW 00:24:13 29° NNE 00:28:05 10° ENE daylight
23 Oct - 02:01:01 10° WNW 02:05:10 38° N 02:09:19 10° ENE daylight
23 Oct - 03:42:23 10° WNW 03:46:05 26° NNW 03:49:47 10° NE daylight
23 Oct - 22:56:43 10° NNW 22:59:48 18° NNE 23:02:53 10° ENE daylight
24 Oct - 00:36:29 10° NW 00:40:33 35° N 00:44:37 10° ENE daylight
24 Oct - 02:17:28 10° WNW 02:21:33 35° N 02:25:37 10° NE daylight
24 Oct - 03:59:10 10° WNW 04:02:19 19° NNW 04:05:28 10° NNE daylight
24 Oct - 23:12:21 10° NNW 23:16:02 25° NNE 23:19:43 10° ENE daylight
25 Oct - 00:52:47 10° WNW 00:56:56 38° N 01:01:05 10° ENE daylight
25 Oct - 02:34:00 10° WNW 02:37:54 30° NNW 02:41:46 10° NE daylight
25 Oct - 04:16:31 10° WNW 04:18:28 13° NW 04:20:25 10° N daylight
25 Oct - 21:49:10 10° N 21:51:41 15° NE 21:54:11 10° ENE daylight
25 Oct - 23:28:21 10° NW 23:32:20 32° NNE 23:36:19 10° ENE daylight
26 Oct - 01:09:11 10° WNW 01:13:20 37° N 01:17:27 10° ENE daylight
26 Oct - 02:50:40 10° WNW 02:54:11 23° NNW 02:57:41 10° NNE daylight
26 Oct - 22:04:27 10° NNW 22:07:52 21° NNE 22:11:16 10° ENE daylight
26 Oct - 23:44:33 10° WNW 23:48:42 36° N 23:52:49 10° ENE daylight
27 Oct - 01:25:40 10° WNW 01:29:41 33° NNW 01:33:42 10° NE daylight
27 Oct - 03:07:37 10° WNW 03:10:23 16° NNW 03:13:08 10° N daylight
27 Oct - 20:42:07 10° NNE 20:43:36 11° NE 20:45:04 10° ENE daylight
27 Oct - 22:20:16 10° NW 22:24:08 28° NNE 22:27:59 10° ENE daylight
28 Oct - 00:00:54 10° WNW 00:05:05 38° N 00:09:14 10° ENE daylight
28 Oct - 01:42:14 10° WNW 01:46:01 27° NNW 01:49:46 10° NE daylight
28 Oct - 03:25:54 10° NW 03:26:29 10° NW 03:27:05 10° NNW daylight
28 Oct - 20:56:43 10° N 20:59:44 18° NNE 21:02:44 10° ENE daylight
28 Oct - 22:36:23 10° NW 22:40:28 34° NNE 22:44:32 10° ENE daylight
